Regional Weather Roundup
Issued by NWS

Home | Current Version | Previous Version | Graphics & Text | Print | Product List | Glossary On
Versions: 1 2 3 4 5 6 7 8 9 10 11 12 13 14 15 16 17 18 19 20 21 22 23 24 25 26 27 28 29 30 31 32 33 34 35 36 37 38 39 40 41 42 43 44 45 46 47 48 49 50
000
ASUS43 KTOP 010508
RWRKS

WEATHER ROUNDUP FOR KANSAS
NATIONAL WEATHER SERVICE GOODLAND KS
1200 AM CDT SAT OCT 01 2016

NOTE:  "FAIR" INDICATES FEW OR NO CLOUDS BELOW 12,000 FEET WITH NO
SIGNIFICANT WEATHER AND/OR OBSTRUCTIONS TO VISIBILITY.

KSZ001>006-013>018-027>032-041>047-010600-
NORTHWEST KANSAS

CITY           SKY/WX    TMP DP  RH WIND       PRES   REMARKS
GOODLAND       CLEAR     57  43  59 SE9       30.14S
HAYS           MOCLDY    55  41  58 E7        30.14S
HILL CITY      PTCLDY    52  47  83 E3        30.15S
RUSSELL        MOCLDY    57  48  72 SE8       30.14R
$$

KSZ061>065-074>080-084>089-010600-
SOUTHWEST KANSAS

CITY           SKY/WX    TMP DP  RH WIND       PRES   REMARKS
DODGE CITY     CLOUDY    59  45  59 SE9       30.14S
ELKHART          N/A     58  45  62 SE13        N/A
GARDEN CITY    MOCLDY    60  46  59 SE8       30.13R
GREAT BEND     PTCLDY    55  43  62 SE6       30.14S
LIBERAL        CLOUDY    63  46  55 SE14      30.13S
PRATT          CLOUDY    56  44  63 SE5       30.14S
$$

KSZ066>073-081>083-090>101-010600-
SOUTHEAST KANSAS

CITY           SKY/WX    TMP DP  RH WIND       PRES   REMARKS
CHANUTE        PTCLDY    54  52  93 NW3       30.12S
COFFEYVILLE    CLOUDY    55  53  93 CALM      30.12S
HUTCHINSON     PTCLDY    51  49  92 CALM      30.14S
MEDICINE LODGE   N/A     60  47  61 E5        30.13R
NEWTON         MOCLDY    60  50  69 E6        30.15R
PARSONS        PTCLDY    51  50  96 CALM      30.13S
WICHITA INTL   PTCLDY    58  53  84 CALM      30.13R
WICHITA JABRA  PTCLDY    59  51  75 NE3       30.13S
WICHITA MCCONL PTCLDY    62  49  64 E2        30.13S
WINFIELD       CLEAR     55  51  86 CALM      30.14R
$$

KSZ007>012-019>026-033>040-048>060-102>105-010600-
NORTHEAST KANSAS

CITY           SKY/WX    TMP DP  RH WIND       PRES   REMARKS
CONCORDIA      CLOUDY    55  50  83 CALM      30.15S
EMPORIA        PTCLDY    56  51  84 W3        30.13S
LAWRENCE       PTCLDY    55  52  89 CALM      30.13S
MANHATTAN      PTCLDY    49  48  97 CALM      30.14S
MARYSVILLE     CLOUDY    54  50  87 E6        30.15S
OLATHE IND     CLEAR     57  53  86 E5        30.14S
OLATHE EXE     CLEAR     56  52  86 NE3       30.13S
SALINA         CLOUDY    60  51  72 CALM      30.15R
TOPEKA BILLARD CLOUDY    54  51  90 CALM      30.13S
TOPEKA FORBES  PTCLDY    56  52  86 NE3       30.13S
$$




USA.gov is the U.S. government's official web portal to all federal, state and local government web resources and services.